STARLINK-1752 (46338 NORAD) Tracking and Keplerian Element Data

This shows tracking and keplerian element data for the satellite.

Feedback or suggestion? Click here.




ElementValue
Catalog46338
NameSTARLINK-1752
Epoch Orbit178
Epoch Day268.91668981
Epoch Year2020
RAAN324.5423
Inclination53.0027
Eccentricity9.72E-05
Argument of Perigee60.5554
Mean Anonmoly126.0758
Mean Motion15.62735012
Decay Rate0.00024853
L11 46338U 20062P 20268.91668981 .00024853 00000-0 27661-3 0 9997
L22 46338 53.0027 324.5423 0000972 60.5554 126.0758 15.62735012 1786

Live tracking and technical data element details for STARLINK-1752 (NORAD 46338). STARLINK-1752 can be tracked NOW for your location showing map with azimuth and elevation plus other details from your city location.

Track the satellite on the map from your city or location and see movement details for azimuth, elevation, latitude, longitude, range, height, and movement on the map or in text.







IsCatalogInMostPopularTable: catalog: 46338, numindb: 1
Update: records affected: 1



GetName: 46338 STARLINK-1752

Hit Count: updated at: Sat, 26 Sep 2020 14:30:39 GMT